Time,TemperatureF,DewpointF,PressureIn,WindDirection,WindDirectionDegrees,WindSpeedMPH,WindSpeedGustMPH,Humidity,HourlyPrecipIn,Conditions,Clouds,dailyrainin,SoftwareType,DateUTC
2013-06-02 00:01:00,74.5,66.4,29.67,SSE,158,4.6,4.6,76,0.00,SCT,,0.00,WeatherDisplay:10.37,2013-06-02 04:01:00,
2013-06-02 00:02:00,74.5,66.4,29.67,SSE,158,4.6,4.6,76,0.00,SCT,,0.00,WeatherDisplay:10.37,2013-06-02 04:02:00,
2013-06-02 00:04:00,74.7,66.6,29.67,NE,45,3.5,3.5,76,0.00,SCT,,0.00,WeatherDisplay:10.37,2013-06-02 04:04:00,
2013-06-02 00:09:00,74.7,66.6,29.67,SSW,202,3.5,3.5,76,0.00,SCT,,0.00,WeatherDisplay:10.37,2013-06-02 04:09:00,
2013-06-02 00:14:00,74.5,66.4,29.67,ESE,112,3.5,3.5,76,0.00,SCT,,0.00,WeatherDisplay:10.37,2013-06-02 04:14:00,
2013-06-02 00:19:00,74.5,66.4,29.67,ESE,112,3.5,3.5,76,0.00,SCT,,0.00,WeatherDisplay:10.37,2013-06-02 04:19:00,
2013-06-02 00:24:00,74.3,66.2,29.66,SSW,202,3.5,3.5,76,0.00,SCT,,0.00,WeatherDisplay:10.37,2013-06-02 04:24:00,
2013-06-02 00:29:00,74.1,66.4,29.66,ESE,112,2.3,2.3,77,0.00,SCT,,0.00,WeatherDisplay:10.37,2013-06-02 04:29:00,
2013-06-02 00:34:00,73.9,66.2,29.66,SE,135,2.7,2.7,77,0.00,SCT,,0.00,WeatherDisplay:10.37,2013-06-02 04:34:00,
2013-06-02 00:39:00,73.6,66.3,29.66,WSW,248,4.2,4.2,78,0.00,SCT,,0.00,WeatherDisplay:10.37,2013-06-02 04:39:00,
2013-06-02 00:44:00,73.4,66.1,29.66,NNE,22,4.6,4.6,78,0.00,SCT,,0.00,WeatherDisplay:10.37,2013-06-02 04:44:00,
2013-06-02 00:49:00,73.4,66.1,29.66,South,180,4.6,4.6,78,0.00,SCT,,0.00,WeatherDisplay:10.37,2013-06-02 04:49:00,
2013-06-02 00:54:00,73.4,66.1,29.66,ESE,112,3.5,3.5,78,0.00,SCT,,0.00,WeatherDisplay:10.37,2013-06-02 04:54:00,
2013-06-02 00:59:00,73.2,65.9,29.66,South,180,5.8,5.8,78,0.00,SCT,,0.00,WeatherDisplay:10.37,2013-06-02 04:59:00,
2013-06-02 01:04:00,73.2,65.9,29.66,SW,225,4.6,4.6,78,0.00,SCT,,0.00,WeatherDisplay:10.37,2013-06-02 05:04:00,
2013-06-02 01:09:00,73.2,65.9,29.65,West,270,2.3,2.3,78,0.00,SCT,,0.00,WeatherDisplay:10.37,2013-06-02 05:09:00,
2013-06-02 01:14:00,73.2,66.3,29.65,South,180,5.8,5.8,79,0.00,SCT,,0.00,WeatherDisplay:10.37,2013-06-02 05:14:00,
2013-06-02 01:19:00,73.2,66.3,29.65,West,270,5.8,5.8,79,0.00,SCT,,0.00,WeatherDisplay:10.37,2013-06-02 05:19:00,
2013-06-02 01:24:00,73.4,66.1,29.66,SW,225,4.6,4.6,78,0.00,SCT,,0.00,WeatherDisplay:10.37,2013-06-02 05:24:00,
2013-06-02 01:29:00,73.4,66.1,29.66,WSW,248,3.5,3.5,78,0.00,SCT,,0.00,WeatherDisplay:10.37,2013-06-02 05:29:00,
2013-06-02 01:34:00,73.6,66.3,29.66,SW,225,5.8,5.8,78,0.00,CLR,,0.00,WeatherDisplay:10.37,2013-06-02 05:34:00,
2013-06-02 01:39:00,73.8,66.5,29.66,South,180,5.8,5.8,78,0.00,CLR,,0.00,WeatherDisplay:10.37,2013-06-02 05:39:00,
2013-06-02 01:44:00,73.6,65.9,29.66,South,180,8.1,8.1,77,0.00,CLR,,0.00,WeatherDisplay:10.37,2013-06-02 05:44:00,
2013-06-02 01:49:00,73.6,65.9,29.66,SSW,202,6.8,6.8,77,0.00,CLR,,0.00,WeatherDisplay:10.37,2013-06-02 05:49:00,
2013-06-02 01:54:00,73.8,66.1,29.66,SW,225,5.8,5.8,77,0.00,CLR,,0.00,WeatherDisplay:10.37,2013-06-02 05:54:00,
2013-06-02 01:59:00,73.8,66.1,29.66,SW,225,6.8,6.8,77,0.00,CLR,,0.00,WeatherDisplay:10.37,2013-06-02 05:59:00,
2013-06-02 02:04:00,73.6,65.9,29.66,SSW,202,5.8,5.8,77,0.00,CLR,,0.00,WeatherDisplay:10.37,2013-06-02 06:04:00,
2013-06-02 02:09:00,73.9,65.9,29.66,West,270,10.4,10.4,76,0.00,CLR,,0.00,WeatherDisplay:10.37,2013-06-02 06:09:00,
2013-06-02 02:14:00,73.9,65.5,29.66,West,270,6.9,6.9,75,0.00,CLR,,0.00,WeatherDisplay:10.37,2013-06-02 06:14:00,
2013-06-02 02:19:00,73.9,65.5,29.66,SW,225,6.9,6.9,75,0.00,CLR,,0.00,WeatherDisplay:10.37,2013-06-02 06:19:00,
2013-06-02 02:24:00,74.1,65.7,29.67,ESE,112,5.8,5.8,75,0.00,CLR,,0.00,WeatherDisplay:10.37,2013-06-02 06:24:00,
2013-06-02 02:29:00,74.3,65.5,29.67,SW,225,5.8,5.8,74,0.00,CLR,,0.00,WeatherDisplay:10.37,2013-06-02 06:29:00,
2013-06-02 02:34:00,74.1,65.3,29.66,SW,225,5.8,5.8,74,0.00,CLR,,0.00,WeatherDisplay:10.37,2013-06-02 06:34:00,
2013-06-02 02:39:00,74.1,65.3,29.66,SW,225,9.2,9.2,74,0.00,CLR,,0.00,WeatherDisplay:10.37,2013-06-02 06:39:00,
2013-06-02 02:44:00,74.3,65.5,29.66,SW,225,6.9,6.9,74,0.00,CLR,,0.00,WeatherDisplay:10.37,2013-06-02 06:44:00,
2013-06-02 02:49:00,73.9,65.5,29.66,SSW,202,8.1,8.1,75,0.00,CLR,,0.00,WeatherDisplay:10.37,2013-06-02 06:49:00,
2013-06-02 02:54:00,73.9,65.5,29.66,West,270,5.8,5.8,75,0.00,CLR,,0.00,WeatherDisplay:10.37,2013-06-02 06:54:00,
2013-06-02 02:59:00,73.9,65.5,29.66,SW,225,6.9,6.9,75,0.00,CLR,,0.00,WeatherDisplay:10.37,2013-06-02 06:59:00,
2013-06-02 03:04:00,73.9,65.5,29.66,WSW,248,8.8,8.8,75,0.00,CLR,,0.00,WeatherDisplay:10.37,2013-06-02 07:04:00,
2013-06-02 03:09:00,74.1,65.7,29.66,SW,225,10.4,10.4,75,0.00,CLR,,0.00,WeatherDisplay:10.37,2013-06-02 07:09:00,
2013-06-02 03:14:00,74.1,65.7,29.66,SSW,202,8.3,8.3,75,0.00,CLR,,0.00,WeatherDisplay:10.37,2013-06-02 07:14:00,
2013-06-02 03:19:00,74.1,65.7,29.66,West,270,9.4,9.4,75,0.00,CLR,,0.00,WeatherDisplay:10.37,2013-06-02 07:19:00,
2013-06-02 03:24:00,74.1,65.3,29.66,WSW,248,8.1,8.1,74,0.00,CLR,,0.00,WeatherDisplay:10.37,2013-06-02 07:24:00,
2013-06-02 03:29:00,74.1,65.3,29.66,WSW,248,8.1,8.1,74,0.00,CLR,,0.00,WeatherDisplay:10.37,2013-06-02 07:29:00,
2013-06-02 03:34:00,74.3,65.5,29.66,SSW,202,8.1,8.1,74,0.00,BKN,,0.00,WeatherDisplay:10.37,2013-06-02 07:34:00,
2013-06-02 03:39:00,74.1,65.3,29.66,WSW,248,8.1,8.1,74,0.00,BKN,,0.00,WeatherDisplay:10.37,2013-06-02 07:39:00,
2013-06-02 03:44:00,74.1,65.3,29.67,SSE,158,9.2,9.2,74,0.00,BKN,,0.00,WeatherDisplay:10.37,2013-06-02 07:44:00,
2013-06-02 03:49:00,73.9,65.1,29.67,South,180,5.8,5.8,74,0.00,BKN,,0.00,WeatherDisplay:10.37,2013-06-02 07:49:00,
2013-06-02 03:54:00,73.9,65.1,29.67,SSW,202,5.8,5.8,74,0.00,BKN,,0.00,WeatherDisplay:10.37,2013-06-02 07:54:00,
2013-06-02 03:59:00,73.9,65.1,29.67,West,270,6.9,6.9,74,0.00,BKN,,0.00,WeatherDisplay:10.37,2013-06-02 07:59:00,
2013-06-02 04:04:00,73.6,65.6,29.67,WSW,248,5.8,5.8,76,0.00,BKN,,0.00,WeatherDisplay:10.37,2013-06-02 08:04:00,
2013-06-02 04:09:00,73.2,65.6,29.66,SSW,202,5.8,5.8,77,0.00,BKN,,0.00,WeatherDisplay:10.37,2013-06-02 08:09:00,
2013-06-02 04:14:00,72.7,65.4,29.66,SW,225,4.7,4.7,78,0.00,BKN,,0.00,WeatherDisplay:10.37,2013-06-02 08:14:00,
2013-06-02 04:19:00,72.9,65.3,29.66,SW,225,4.7,4.7,77,0.00,BKN,,0.00,WeatherDisplay:10.37,2013-06-02 08:19:00,
2013-06-02 04:24:00,72.7,65.1,29.66,SSW,202,3.7,3.7,77,0.00,BKN,,0.00,WeatherDisplay:10.37,2013-06-02 08:24:00,
2013-06-02 04:29:00,72.5,65.2,29.66,West,270,5.8,5.8,78,0.00,BKN,,0.00,WeatherDisplay:10.37,2013-06-02 08:29:00,
2013-06-02 04:34:00,72.3,65.1,29.66,SSW,202,4.6,4.6,78,0.00,SCT,,0.00,WeatherDisplay:10.37,2013-06-02 08:34:00,
2013-06-02 04:39:00,72.3,65.1,29.66,West,270,5.8,5.8,78,0.00,SCT,,0.00,WeatherDisplay:10.37,2013-06-02 08:39:00,
2013-06-02 04:44:00,72.3,65.1,29.66,West,270,4.7,4.7,78,0.00,SCT,,0.00,WeatherDisplay:10.37,2013-06-02 08:44:00,
2013-06-02 04:49:00,72.3,65.8,29.66,SW,225,5.8,5.8,80,0.00,SCT,,0.00,WeatherDisplay:10.37,2013-06-02 08:49:00,
2013-06-02 04:54:00,70.5,66.4,29.66,SSW,202,6.9,6.9,87,0.03,RA,,0.03,WeatherDisplay:10.37,2013-06-02 08:54:00,
2013-06-02 04:59:00,69.4,67.0,29.66,SSW,202,6.9,6.9,92,0.04,RA,,0.04,WeatherDisplay:10.37,2013-06-02 08:59:00,
2013-06-02 05:04:00,69.1,67.0,29.66,SW,225,6.9,6.9,93,0.05,RA,,0.05,WeatherDisplay:10.37,2013-06-02 09:04:00,
2013-06-02 05:09:00,68.0,67.4,29.67,SSW,202,8.1,8.1,98,0.08,RA,,0.08,WeatherDisplay:10.37,2013-06-02 09:09:00,
2013-06-02 05:14:00,67.6,67.3,29.67,SW,225,5.8,5.8,99,0.09,RA,,0.09,WeatherDisplay:10.37,2013-06-02 09:14:00,
2013-06-02 05:19:00,67.6,67.3,29.67,SSW,202,9.2,9.2,99,0.09,RA,,0.09,WeatherDisplay:10.37,2013-06-02 09:19:00,
2013-06-02 05:24:00,67.6,67.3,29.67,West,270,6.8,7.3,99,0.09,SCT,,0.09,WeatherDisplay:10.37,2013-06-02 09:24:00,
2013-06-02 05:29:00,67.6,67.3,29.67,SSW,202,6.9,6.9,99,0.09,SCT,,0.09,WeatherDisplay:10.37,2013-06-02 09:29:00,
2013-06-02 05:34:00,67.6,67.3,29.67,SW,225,5.8,5.8,99,0.09,-RA,,0.09,WeatherDisplay:10.37,2013-06-02 09:34:00,
2013-06-02 05:39:00,67.6,67.3,29.67,WSW,248,8.1,8.1,99,0.10,-RA,,0.10,WeatherDisplay:10.37,2013-06-02 09:39:00,
2013-06-02 05:44:00,67.6,67.3,29.67,West,270,8.3,8.3,99,0.10,-RA,,0.10,WeatherDisplay:10.37,2013-06-02 09:44:00,
2013-06-02 05:49:00,67.8,67.5,29.67,SW,225,8.1,8.1,99,0.10,-RA,,0.10,WeatherDisplay:10.37,2013-06-02 09:49:00,
2013-06-02 05:54:00,68.0,67.7,29.67,SW,225,6.9,6.9,99,0.07,-RA,,0.11,WeatherDisplay:10.37,2013-06-02 09:54:00,
2013-06-02 05:59:00,67.6,67.3,29.67,SW,225,9.2,9.2,99,0.08,-RA,,0.12,WeatherDisplay:10.37,2013-06-02 09:59:00,
2013-06-02 06:04:00,67.6,67.3,29.67,SW,225,11.5,11.5,99,0.08,-RA,,0.13,WeatherDisplay:10.37,2013-06-02 10:04:00,
2013-06-02 06:09:00,67.8,67.5,29.67,West,270,9.2,9.2,99,0.05,-RA,,0.13,WeatherDisplay:10.37,2013-06-02 10:09:00,
2013-06-02 06:14:00,68.0,67.7,29.67,WSW,248,9.2,9.2,99,0.04,-RA,,0.13,WeatherDisplay:10.37,2013-06-02 10:14:00,
2013-06-02 06:19:00,68.4,68.1,29.67,WSW,248,9.2,9.2,99,0.04,-RA,,0.13,WeatherDisplay:10.37,2013-06-02 10:19:00,
2013-06-02 06:24:00,68.4,68.1,29.67,WSW,248,6.9,6.9,99,0.04,-RA,,0.13,WeatherDisplay:10.37,2013-06-02 10:24:00,
2013-06-02 06:29:00,68.4,68.1,29.67,SW,225,8.1,8.1,99,0.04,-RA,,0.13,WeatherDisplay:10.37,2013-06-02 10:29:00,
2013-06-02 06:34:00,68.4,68.1,29.67,SSW,202,9.2,9.2,99,0.04,-RA,,0.13,WeatherDisplay:10.37,2013-06-02 10:34:00,
2013-06-02 06:39:00,68.4,68.1,29.67,WSW,248,6.9,6.9,99,0.03,-RA,,0.13,WeatherDisplay:10.37,2013-06-02 10:39:00,
2013-06-02 06:44:00,68.4,68.1,29.67,WSW,248,10.4,10.4,99,0.03,-RA,,0.13,WeatherDisplay:10.37,2013-06-02 10:44:00,
2013-06-02 06:49:00,68.4,68.1,29.68,WSW,248,9.9,9.9,99,0.03,-RA,,0.13,WeatherDisplay:10.37,2013-06-02 10:49:00,
2013-06-02 06:54:00,68.4,67.8,29.68,SW,225,9.2,9.2,98,0.03,-RA,,0.13,WeatherDisplay:10.37,2013-06-02 10:54:00,
2013-06-02 06:59:00,68.4,67.8,29.69,SW,225,6.9,6.9,98,0.01,-RA,,0.13,WeatherDisplay:10.37,2013-06-02 10:59:00,
2013-06-02 07:04:00,68.4,67.8,29.69,WSW,248,9.2,9.2,98,0.00,-RA,,0.13,WeatherDisplay:10.37,2013-06-02 11:04:00,
2013-06-02 07:09:00,68.5,67.9,29.68,West,270,5.8,5.8,98,0.00,-RA,,0.13,WeatherDisplay:10.37,2013-06-02 11:09:00,
2013-06-02 07:14:00,68.5,67.9,29.68,WSW,248,5.8,5.8,98,0.00,-RA,,0.13,WeatherDisplay:10.37,2013-06-02 11:14:00,
2013-06-02 07:19:00,68.7,68.1,29.68,SSW,202,4.7,4.7,98,0.00,-RA,,0.13,WeatherDisplay:10.37,2013-06-02 11:19:00,
2013-06-02 07:24:00,68.7,68.4,29.69,South,180,3.7,3.7,99,0.00,-RA,,0.13,WeatherDisplay:10.37,2013-06-02 11:24:00,
2013-06-02 07:29:00,68.7,68.1,29.69,SW,225,6.9,6.9,98,0.00,-RA,,0.13,WeatherDisplay:10.37,2013-06-02 11:29:00,
2013-06-02 07:34:00,68.7,68.4,29.69,SW,225,5.8,5.8,99,0.00,BKN,,0.13,WeatherDisplay:10.37,2013-06-02 11:34:00,
2013-06-02 07:39:00,68.9,68.3,29.69,SW,225,5.8,5.8,98,0.00,BKN,,0.13,WeatherDisplay:10.37,2013-06-02 11:39:00,
2013-06-02 07:44:00,69.1,68.5,29.69,SW,225,4.6,4.6,98,0.00,BKN,,0.13,WeatherDisplay:10.37,2013-06-02 11:44:00,
2013-06-02 07:49:00,69.3,68.7,29.69,WSW,248,4.6,4.6,98,0.00,BKN,,0.13,WeatherDisplay:10.37,2013-06-02 11:49:00,
2013-06-02 07:54:00,69.8,69.2,29.69,SW,225,4.6,4.6,98,0.00,BKN,,0.13,WeatherDisplay:10.37,2013-06-02 11:54:00,
2013-06-02 07:59:00,70.2,69.3,29.69,SSW,202,4.6,4.6,97,0.00,BKN,,0.13,WeatherDisplay:10.37,2013-06-02 11:59:00,
2013-06-02 08:04:00,69.8,68.9,29.69,SW,225,7.3,7.3,97,0.00,BKN,,0.13,WeatherDisplay:10.37,2013-06-02 12:04:00,
2013-06-02 08:09:00,69.6,68.7,29.70,SW,225,4.6,4.6,97,0.00,BKN,,0.13,WeatherDisplay:10.37,2013-06-02 12:09:00,
2013-06-02 08:14:00,69.4,68.8,29.70,SSW,202,5.8,5.8,98,0.00,BKN,,0.13,WeatherDisplay:10.37,2013-06-02 12:14:00,
2013-06-02 08:19:00,69.3,68.7,29.70,SW,225,5.8,5.8,98,0.00,BKN,,0.13,WeatherDisplay:10.37,2013-06-02 12:19:00,
2013-06-02 08:24:00,69.1,68.5,29.70,West,270,5.8,5.8,98,0.00,BKN,,0.13,WeatherDisplay:10.37,2013-06-02 12:24:00,
2013-06-02 08:29:00,69.1,68.8,29.70,SW,225,4.6,4.6,99,0.00,BKN,,0.13,WeatherDisplay:10.37,2013-06-02 12:29:00,
2013-06-02 08:34:00,69.1,68.8,29.70,SW,225,5.8,5.8,99,0.00,FEW,,0.13,WeatherDisplay:10.37,2013-06-02 12:34:00,
2013-06-02 08:39:00,69.1,68.5,29.70,WSW,248,8.1,8.1,98,0.00,FEW,,0.13,WeatherDisplay:10.37,2013-06-02 12:39:00,
2013-06-02 08:44:00,69.4,68.8,29.69,SW,225,5.8,5.8,98,0.00,FEW,,0.13,WeatherDisplay:10.37,2013-06-02 12:44:00,
2013-06-02 08:49:00,70.7,69.2,29.69,SW,225,8.1,8.1,95,0.00,FEW,,0.13,WeatherDisplay:10.37,2013-06-02 12:49:00,
2013-06-02 08:54:00,70.5,69.0,29.69,SSW,202,5.8,5.8,95,0.00,FEW,,0.13,WeatherDisplay:10.37,2013-06-02 12:54:00,
2013-06-02 08:59:00,70.9,69.1,29.70,SW,225,6.3,6.3,94,0.00,FEW,,0.13,WeatherDisplay:10.37,2013-06-02 12:59:00,
2013-06-02 09:04:00,71.1,69.3,29.70,SW,225,6.9,6.9,94,0.00,BKN,,0.13,WeatherDisplay:10.37,2013-06-02 13:04:00,
2013-06-02 09:09:00,70.9,69.1,29.70,SSW,202,8.1,8.1,94,0.00,BKN,,0.13,WeatherDisplay:10.37,2013-06-02 13:09:00,
2013-06-02 09:14:00,70.5,68.7,29.70,West,270,6.9,6.9,94,0.00,BKN,,0.13,WeatherDisplay:10.37,2013-06-02 13:14:00,
2013-06-02 09:19:00,70.3,68.5,29.70,WSW,248,6.3,6.3,94,0.00,BKN,,0.13,WeatherDisplay:10.37,2013-06-02 13:19:00,
2013-06-02 09:24:00,70.2,68.7,29.70,WSW,248,5.8,5.9,95,0.00,BKN,,0.13,WeatherDisplay:10.37,2013-06-02 13:24:00,
2013-06-02 09:29:00,70.0,68.5,29.70,SW,225,9.2,9.2,95,0.00,BKN,,0.13,WeatherDisplay:10.37,2013-06-02 13:29:00,
2013-06-02 09:34:00,70.0,68.5,29.70,SSW,202,6.9,6.9,95,0.00,OVC,,0.13,WeatherDisplay:10.37,2013-06-02 13:34:00,
2013-06-02 09:39:00,69.8,68.3,29.70,West,270,4.2,4.2,95,0.00,OVC,,0.13,WeatherDisplay:10.37,2013-06-02 13:39:00,
2013-06-02 09:44:00,69.6,68.1,29.70,WSW,248,6.9,6.9,95,0.00,OVC,,0.13,WeatherDisplay:10.37,2013-06-02 13:44:00,
2013-06-02 09:49:00,69.6,68.1,29.70,West,270,8.1,8.1,95,0.00,OVC,,0.13,WeatherDisplay:10.37,2013-06-02 13:49:00,
2013-06-02 09:54:00,69.6,68.4,29.70,SW,225,5.8,5.8,96,0.00,OVC,,0.13,WeatherDisplay:10.37,2013-06-02 13:54:00,
2013-06-02 09:59:00,69.4,68.2,29.70,WSW,248,9.2,9.2,96,0.00,OVC,,0.13,WeatherDisplay:10.37,2013-06-02 13:59:00,
2013-06-02 10:04:00,69.4,68.2,29.70,SW,225,10.4,10.4,96,0.00,OVC,,0.13,WeatherDisplay:10.37,2013-06-02 14:04:00,
2013-06-02 10:09:00,70.3,67.9,29.70,West,270,10.4,10.4,92,0.00,OVC,,0.13,WeatherDisplay:10.37,2013-06-02 14:09:00,
2013-06-02 10:14:00,72.0,68.2,29.70,SW,225,9.9,9.9,88,0.00,OVC,,0.13,WeatherDisplay:10.37,2013-06-02 14:14:00,
2013-06-02 10:19:00,72.7,68.6,29.70,WSW,248,9.9,9.9,87,0.00,OVC,,0.13,WeatherDisplay:10.37,2013-06-02 14:19:00,
2013-06-02 10:24:00,73.2,68.1,29.69,WSW,248,10.4,10.4,84,0.00,OVC,,0.13,WeatherDisplay:10.37,2013-06-02 14:24:00,
2013-06-02 10:29:00,74.3,68.1,29.69,SW,225,8.3,8.3,81,0.00,OVC,,0.13,WeatherDisplay:10.37,2013-06-02 14:29:00,
2013-06-02 10:34:00,75.0,68.4,29.70,West,270,10.4,10.4,80,0.00,BKN,,0.13,WeatherDisplay:10.37,2013-06-02 14:34:00,
2013-06-02 10:39:00,74.7,68.1,29.70,WSW,248,11.9,11.9,80,0.00,BKN,,0.13,WeatherDisplay:10.37,2013-06-02 14:39:00,
2013-06-02 10:44:00,75.2,67.5,29.70,SW,225,11.5,11.5,77,0.00,BKN,,0.13,WeatherDisplay:10.37,2013-06-02 14:44:00,
2013-06-02 10:49:00,75.7,67.2,29.70,SW,225,11.5,11.5,75,0.00,BKN,,0.13,WeatherDisplay:10.37,2013-06-02 14:49:00,
2013-06-02 10:54:00,74.7,65.5,29.70,SSW,202,15.0,15.0,73,0.00,BKN,,0.13,WeatherDisplay:10.37,2013-06-02 14:54:00,
2013-06-02 10:59:00,75.6,66.7,29.70,WSW,248,10.4,10.4,74,0.00,BKN,,0.13,WeatherDisplay:10.37,2013-06-02 14:59:00,
2013-06-02 11:04:00,75.6,67.1,29.70,SW,225,13.8,13.8,75,0.00,BKN,,0.13,WeatherDisplay:10.37,2013-06-02 15:04:00,
2013-06-02 11:09:00,75.9,66.2,29.70,SW,225,13.8,13.8,72,0.00,BKN,,0.13,WeatherDisplay:10.37,2013-06-02 15:09:00,
2013-06-02 11:14:00,75.4,65.7,29.70,SW,225,10.4,10.4,72,0.00,BKN,,0.13,WeatherDisplay:10.37,2013-06-02 15:14:00,
2013-06-02 11:19:00,74.3,65.5,29.70,SW,225,12.4,12.4,74,0.00,BKN,,0.13,WeatherDisplay:10.37,2013-06-02 15:19:00,
2013-06-02 11:24:00,74.3,64.7,29.70,West,270,16.1,16.1,72,0.00,BKN,,0.13,WeatherDisplay:10.37,2013-06-02 15:24:00,
2013-06-02 11:29:00,75.2,64.3,29.70,SSW,202,18.4,18.4,69,0.00,BKN,,0.13,WeatherDisplay:10.37,2013-06-02 15:29:00,
2013-06-02 11:34:00,74.8,64.8,29.71,WSW,248,11.5,11.5,71,0.00,BKN,,0.13,WeatherDisplay:10.37,2013-06-02 15:34:00,
2013-06-02 11:39:00,74.8,63.9,29.71,SW,225,16.6,16.6,69,0.00,BKN,,0.13,WeatherDisplay:10.37,2013-06-02 15:39:00,
2013-06-02 11:44:00,75.4,64.5,29.71,SW,225,10.9,10.9,69,0.00,BKN,,0.13,WeatherDisplay:10.37,2013-06-02 15:44:00,
2013-06-02 11:49:00,76.5,64.7,29.72,SSW,202,14.5,14.5,67,0.00,BKN,,0.13,WeatherDisplay:10.37,2013-06-02 15:49:00,
2013-06-02 11:54:00,77.5,64.8,29.72,SW,225,11.5,11.5,65,0.00,BKN,,0.13,WeatherDisplay:10.37,2013-06-02 15:54:00,
2013-06-02 11:59:00,78.1,65.4,29.71,WSW,248,12.7,12.7,65,0.00,BKN,,0.13,WeatherDisplay:10.37,2013-06-02 15:59:00,
2013-06-02 12:04:00,78.6,64.5,29.71,SSW,202,10.4,10.4,62,0.00,SCT,,0.13,WeatherDisplay:10.37,2013-06-02 16:04:00,
2013-06-02 12:09:00,78.1,63.6,29.71,SW,225,18.1,18.1,61,0.00,SCT,,0.13,WeatherDisplay:10.37,2013-06-02 16:09:00,
2013-06-02 12:14:00,78.4,64.3,29.71,SW,225,10.4,10.4,62,0.00,SCT,,0.13,WeatherDisplay:10.37,2013-06-02 16:14:00,
2013-06-02 12:19:00,78.6,62.1,29.71,SSW,202,16.1,16.1,57,0.00,SCT,,0.13,WeatherDisplay:10.37,2013-06-02 16:19:00,
2013-06-02 12:24:00,79.2,63.1,29.71,SW,225,13.8,13.8,58,0.00,SCT,,0.13,WeatherDisplay:10.37,2013-06-02 16:24:00,
2013-06-02 12:29:00,80.1,63.0,29.71,SW,225,15.0,15.0,56,0.00,SCT,,0.13,WeatherDisplay:10.37,2013-06-02 16:29:00,
2013-06-02 12:34:00,80.2,63.6,29.71,SW,225,10.4,10.4,57,0.00,SCT,,0.13,WeatherDisplay:10.37,2013-06-02 16:34:00,
2013-06-02 12:39:00,79.0,62.5,29.71,SW,225,19.6,19.6,57,0.00,SCT,,0.13,WeatherDisplay:10.37,2013-06-02 16:39:00,
2013-06-02 12:44:00,78.3,61.8,29.71,SW,225,13.8,13.8,57,0.00,SCT,,0.13,WeatherDisplay:10.37,2013-06-02 16:44:00,
2013-06-02 12:49:00,78.4,61.9,29.71,SW,225,11.9,11.9,57,0.00,SCT,,0.13,WeatherDisplay:10.37,2013-06-02 16:49:00,
2013-06-02 12:54:00,79.3,61.7,29.71,West,270,17.3,17.3,55,0.00,SCT,,0.13,WeatherDisplay:10.37,2013-06-02 16:54:00,
2013-06-02 12:59:00,79.3,61.2,29.70,SW,225,16.1,16.1,54,0.00,SCT,,0.13,WeatherDisplay:10.37,2013-06-02 16:59:00,
2013-06-02 13:04:00,79.0,62.0,29.70,South,180,16.1,16.1,56,0.00,SCT,,0.13,WeatherDisplay:10.37,2013-06-02 17:04:00,
2013-06-02 13:09:00,79.7,62.1,29.71,West,270,10.4,10.4,55,0.00,SCT,,0.13,WeatherDisplay:10.37,2013-06-02 17:09:00,
2013-06-02 13:14:00,80.6,62.9,29.71,WSW,248,11.9,11.9,55,0.00,SCT,,0.13,WeatherDisplay:10.37,2013-06-02 17:14:00,
2013-06-02 13:19:00,79.9,61.8,29.71,WSW,248,15.0,15.0,54,0.00,SCT,,0.13,WeatherDisplay:10.37,2013-06-02 17:19:00,
2013-06-02 13:24:00,80.6,61.9,29.71,SW,225,15.0,15.0,53,0.00,SCT,,0.13,WeatherDisplay:10.37,2013-06-02 17:24:00,
2013-06-02 13:29:00,81.3,63.1,29.71,West,270,11.9,11.9,54,0.00,SCT,,0.13,WeatherDisplay:10.37,2013-06-02 17:29:00,
2013-06-02 13:34:00,81.5,62.7,29.70,WSW,248,12.7,12.7,53,0.00,BKN,,0.13,WeatherDisplay:10.37,2013-06-02 17:34:00,
2013-06-02 13:39:00,82.0,62.6,29.70,SW,225,13.8,13.8,52,0.00,BKN,,0.13,WeatherDisplay:10.37,2013-06-02 17:39:00,
2013-06-02 13:44:00,80.2,62.0,29.70,WSW,248,15.0,15.0,54,0.00,BKN,,0.13,WeatherDisplay:10.37,2013-06-02 17:44:00,
2013-06-02 13:49:00,80.8,62.6,29.70,WSW,248,16.1,16.1,54,0.00,BKN,,0.13,WeatherDisplay:10.37,2013-06-02 17:49:00,
2013-06-02 13:54:00,81.9,64.1,29.70,WSW,248,13.8,13.8,55,0.00,BKN,,0.13,WeatherDisplay:10.37,2013-06-02 17:54:00,
2013-06-02 13:59:00,81.7,64.0,29.70,SW,225,15.0,15.0,55,0.00,BKN,,0.13,WeatherDisplay:10.37,2013-06-02 17:59:00,
2013-06-02 14:04:00,82.4,63.5,29.70,WSW,248,13.8,13.8,53,0.00,BKN,,0.13,WeatherDisplay:10.37,2013-06-02 18:04:00,
2013-06-02 14:09:00,83.7,63.7,29.70,WSW,248,10.4,10.4,51,0.00,BKN,,0.13,WeatherDisplay:10.37,2013-06-02 18:09:00,
2013-06-02 14:14:00,82.9,63.5,29.70,SW,225,11.5,11.5,52,0.00,BKN,,0.13,WeatherDisplay:10.37,2013-06-02 18:14:00,
2013-06-02 14:19:00,82.0,63.7,29.70,West,270,10.4,10.4,54,0.00,BKN,,0.13,WeatherDisplay:10.37,2013-06-02 18:19:00,
2013-06-02 14:24:00,81.3,63.1,29.69,SE,135,9.2,9.2,54,0.00,BKN,,0.13,WeatherDisplay:10.37,2013-06-02 18:24:00,
2013-06-02 14:29:00,81.7,62.4,29.69,West,270,13.0,13.0,52,0.00,BKN,,0.13,WeatherDisplay:10.37,2013-06-02 18:29:00,
2013-06-02 14:34:00,82.6,62.6,29.69,WNW,292,10.4,10.4,51,0.00,SCT,,0.13,WeatherDisplay:10.37,2013-06-02 18:34:00,
2013-06-02 14:39:00,81.9,62.5,29.69,WSW,248,11.5,11.5,52,0.00,SCT,,0.13,WeatherDisplay:10.37,2013-06-02 18:39:00,
2013-06-02 14:44:00,83.7,63.7,29.69,WSW,248,6.9,6.9,51,0.00,SCT,,0.13,WeatherDisplay:10.37,2013-06-02 18:44:00,
2013-06-02 14:49:00,81.5,62.7,29.69,SW,225,13.0,13.0,53,0.00,SCT,,0.13,WeatherDisplay:10.37,2013-06-02 18:49:00,
2013-06-02 14:54:00,81.9,63.1,29.69,West,270,10.4,10.4,53,0.00,SCT,,0.13,WeatherDisplay:10.37,2013-06-02 18:54:00,
2013-06-02 14:59:00,80.8,62.6,29.69,SW,225,16.1,16.1,54,0.00,SCT,,0.13,WeatherDisplay:10.37,2013-06-02 18:59:00,
2013-06-02 15:04:00,80.4,62.2,29.69,SW,225,10.9,10.9,54,0.00,BKN,,0.13,WeatherDisplay:10.37,2013-06-02 19:04:00,
2013-06-02 15:09:00,81.1,63.4,29.69,West,270,10.4,10.4,55,0.00,BKN,,0.13,WeatherDisplay:10.37,2013-06-02 19:09:00,
2013-06-02 15:14:00,80.1,62.5,29.69,SSW,202,10.4,10.4,55,0.00,BKN,,0.13,WeatherDisplay:10.37,2013-06-02 19:14:00,
2013-06-02 15:19:00,79.5,62.4,29.69,WSW,248,13.0,13.0,56,0.00,BKN,,0.13,WeatherDisplay:10.37,2013-06-02 19:19:00,
2013-06-02 15:24:00,78.6,62.1,29.69,SW,225,11.5,11.5,57,0.00,BKN,,0.13,WeatherDisplay:10.37,2013-06-02 19:24:00,
2013-06-02 15:29:00,77.9,61.9,29.69,SW,225,10.4,10.4,58,0.00,BKN,,0.13,WeatherDisplay:10.37,2013-06-02 19:29:00,
2013-06-02 15:34:00,77.9,61.9,29.69,SSW,202,10.4,10.4,58,0.00,BKN,,0.13,WeatherDisplay:10.37,2013-06-02 19:34:00,
2013-06-02 15:39:00,77.7,62.2,29.69,West,270,10.4,10.4,59,0.00,BKN,,0.13,WeatherDisplay:10.37,2013-06-02 19:39:00,
2013-06-02 15:44:00,77.5,62.0,29.69,SSW,202,10.4,10.4,59,0.00,BKN,,0.13,WeatherDisplay:10.37,2013-06-02 19:44:00,
2013-06-02 15:49:00,77.5,63.0,29.69,WSW,248,8.3,8.3,61,0.00,BKN,,0.13,WeatherDisplay:10.37,2013-06-02 19:49:00,
2013-06-02 15:54:00,77.0,63.0,29.69,SW,225,9.2,9.2,62,0.00,BKN,,0.13,WeatherDisplay:10.37,2013-06-02 19:54:00,
2013-06-02 15:59:00,77.4,63.4,29.69,SW,225,8.1,8.1,62,0.00,BKN,,0.13,WeatherDisplay:10.37,2013-06-02 19:59:00,
2013-06-02 16:04:00,77.5,63.0,29.69,WSW,248,13.0,13.0,61,0.00,BKN,,0.13,WeatherDisplay:10.37,2013-06-02 20:04:00,
2013-06-02 16:09:00,77.9,63.4,29.69,WSW,248,9.2,9.2,61,0.00,BKN,,0.13,WeatherDisplay:10.37,2013-06-02 20:09:00,
2013-06-02 16:14:00,79.2,64.6,29.69,SW,225,5.8,5.8,61,0.00,BKN,,0.13,WeatherDisplay:10.37,2013-06-02 20:14:00,
2013-06-02 16:19:00,79.0,63.9,29.69,West,270,13.8,13.8,60,0.00,BKN,,0.13,WeatherDisplay:10.37,2013-06-02 20:19:00,
2013-06-02 16:24:00,79.3,63.7,29.69,SW,225,15.5,15.5,59,0.00,BKN,,0.13,WeatherDisplay:10.37,2013-06-02 20:24:00,
2013-06-02 16:29:00,79.7,64.1,29.69,SW,225,11.5,11.5,59,0.00,BKN,,0.13,WeatherDisplay:10.37,2013-06-02 20:29:00,
2013-06-02 16:34:00,79.2,64.6,29.69,West,270,13.5,13.5,61,0.00,BKN,,0.13,WeatherDisplay:10.37,2013-06-02 20:34:00,
2013-06-02 16:39:00,79.2,63.1,29.69,SSW,202,11.5,11.5,58,0.00,BKN,,0.13,WeatherDisplay:10.37,2013-06-02 20:39:00,
2013-06-02 16:44:00,78.8,62.3,29.69,SSW,202,13.8,13.8,57,0.00,BKN,,0.13,WeatherDisplay:10.37,2013-06-02 20:44:00,
2013-06-02 16:49:00,79.0,63.0,29.68,WSW,248,13.8,13.8,58,0.00,BKN,,0.13,WeatherDisplay:10.37,2013-06-02 20:49:00,
2013-06-02 16:54:00,79.2,63.1,29.68,SW,225,11.5,11.5,58,0.00,BKN,,0.13,WeatherDisplay:10.37,2013-06-02 20:54:00,
2013-06-02 16:59:00,79.0,63.0,29.68,SW,225,11.5,11.5,58,0.00,BKN,,0.13,WeatherDisplay:10.37,2013-06-02 20:59:00,
2013-06-02 17:04:00,79.2,63.1,29.68,SW,225,9.2,9.2,58,0.00,CLR,,0.13,WeatherDisplay:10.37,2013-06-02 21:04:00,
2013-06-02 17:09:00,79.3,62.7,29.67,SW,225,8.1,8.1,57,0.00,CLR,,0.13,WeatherDisplay:10.37,2013-06-02 21:09:00,
2013-06-02 17:14:00,78.4,62.9,29.67,WSW,248,10.4,10.4,59,0.00,CLR,,0.13,WeatherDisplay:10.37,2013-06-02 21:14:00,
2013-06-02 17:19:00,78.4,62.9,29.67,WSW,248,11.4,11.4,59,0.00,CLR,,0.13,WeatherDisplay:10.37,2013-06-02 21:19:00,
2013-06-02 17:24:00,78.3,63.3,29.67,West,270,8.1,8.1,60,0.00,CLR,,0.13,WeatherDisplay:10.37,2013-06-02 21:24:00,
2013-06-02 17:29:00,77.9,62.4,29.67,SW,225,9.2,9.2,59,0.00,CLR,,0.13,WeatherDisplay:10.37,2013-06-02 21:29:00,
2013-06-02 17:34:00,77.9,62.9,29.68,SW,225,6.9,6.9,60,0.00,CLR,,0.13,WeatherDisplay:10.37,2013-06-02 21:34:00,
2013-06-02 17:39:00,78.6,63.1,29.68,SW,225,10.4,10.4,59,0.00,CLR,,0.13,WeatherDisplay:10.37,2013-06-02 21:39:00,
2013-06-02 17:44:00,78.1,62.6,29.68,SSW,202,7.8,7.8,59,0.00,CLR,,0.13,WeatherDisplay:10.37,2013-06-02 21:44:00,
2013-06-02 17:49:00,77.7,62.7,29.68,SW,225,9.4,9.4,60,0.00,CLR,,0.13,WeatherDisplay:10.37,2013-06-02 21:49:00,
2013-06-02 17:54:00,77.7,62.2,29.68,SW,225,8.3,8.3,59,0.00,CLR,,0.13,WeatherDisplay:10.37,2013-06-02 21:54:00,
2013-06-02 17:59:00,77.7,63.2,29.67,SW,225,6.9,6.9,61,0.00,CLR,,0.13,WeatherDisplay:10.37,2013-06-02 21:59:00,
2013-06-02 18:04:00,77.7,63.2,29.67,SW,225,5.8,5.8,61,0.00,FEW,,0.13,WeatherDisplay:10.37,2013-06-02 22:04:00,
2013-06-02 18:09:00,78.1,63.1,29.67,SW,225,6.9,6.9,60,0.00,FEW,,0.13,WeatherDisplay:10.37,2013-06-02 22:09:00,
2013-06-02 18:14:00,78.6,63.6,29.67,West,270,5.8,5.8,60,0.00,FEW,,0.13,WeatherDisplay:10.37,2013-06-02 22:14:00,
2013-06-02 18:19:00,78.6,64.0,29.67,SW,225,5.8,5.8,61,0.00,FEW,,0.13,WeatherDisplay:10.37,2013-06-02 22:19:00,
2013-06-02 18:24:00,78.3,64.2,29.67,ENE,68,6.9,6.9,62,0.00,FEW,,0.13,WeatherDisplay:10.37,2013-06-02 22:24:00,
2013-06-02 18:29:00,77.7,63.6,29.67,SSW,202,7.8,7.8,62,0.00,FEW,,0.13,WeatherDisplay:10.37,2013-06-02 22:29:00,
2013-06-02 18:34:00,77.2,63.6,29.67,WSW,248,10.4,10.4,63,0.00,FEW,,0.13,WeatherDisplay:10.37,2013-06-02 22:34:00,
2013-06-02 18:39:00,77.0,63.4,29.67,SSW,202,8.1,8.1,63,0.00,FEW,,0.13,WeatherDisplay:10.37,2013-06-02 22:39:00,
2013-06-02 18:44:00,76.6,63.5,29.67,WSW,248,5.8,5.8,64,0.00,FEW,,0.13,WeatherDisplay:10.37,2013-06-02 22:44:00,
2013-06-02 18:49:00,76.6,63.5,29.67,SSW,202,5.8,5.8,64,0.00,FEW,,0.13,WeatherDisplay:10.37,2013-06-02 22:49:00,
2013-06-02 18:54:00,76.5,63.4,29.67,SW,225,6.3,6.3,64,0.00,FEW,,0.13,WeatherDisplay:10.37,2013-06-02 22:54:00,
2013-06-02 18:59:00,76.1,63.5,29.67,WSW,248,5.8,5.8,65,0.00,FEW,,0.13,WeatherDisplay:10.37,2013-06-02 22:59:00,
2013-06-02 19:04:00,75.9,63.3,29.67,WSW,248,5.8,5.8,65,0.00,SCT,,0.13,WeatherDisplay:10.37,2013-06-02 23:04:00,
2013-06-02 19:09:00,75.9,63.7,29.67,WSW,248,4.6,4.6,66,0.00,SCT,,0.13,WeatherDisplay:10.37,2013-06-02 23:09:00,
2013-06-02 19:14:00,75.7,63.5,29.67,SW,225,5.8,5.8,66,0.00,SCT,,0.13,WeatherDisplay:10.37,2013-06-02 23:14:00,
2013-06-02 19:19:00,75.6,63.4,29.67,WSW,248,3.5,3.8,66,0.00,SCT,,0.13,WeatherDisplay:10.37,2013-06-02 23:19:00,
2013-06-02 19:24:00,75.6,63.0,29.67,SW,225,5.3,5.3,65,0.00,SCT,,0.13,WeatherDisplay:10.37,2013-06-02 23:24:00,
2013-06-02 19:29:00,75.6,62.6,29.67,SW,225,5.8,5.9,64,0.00,SCT,,0.13,WeatherDisplay:10.37,2013-06-02 23:29:00,
2013-06-02 19:34:00,75.4,62.8,29.67,WSW,248,6.9,6.9,65,0.00,SCT,,0.13,WeatherDisplay:10.37,2013-06-02 23:34:00,
2013-06-02 19:39:00,75.7,62.7,29.67,WSW,248,5.8,5.8,64,0.00,SCT,,0.13,WeatherDisplay:10.37,2013-06-02 23:39:00,
2013-06-02 19:44:00,75.7,62.7,29.67,SW,225,4.6,4.6,64,0.00,SCT,,0.13,WeatherDisplay:10.37,2013-06-02 23:44:00,
2013-06-02 19:49:00,75.2,62.2,29.68,WSW,248,5.8,5.8,64,0.00,SCT,,0.13,WeatherDisplay:10.37,2013-06-02 23:49:00,
2013-06-02 19:54:00,75.6,63.0,29.68,SW,225,3.7,3.7,65,0.00,SCT,,0.13,WeatherDisplay:10.37,2013-06-02 23:54:00,
2013-06-02 19:59:00,75.4,62.4,29.68,WSW,248,4.6,4.6,64,0.00,SCT,,0.13,WeatherDisplay:10.37,2013-06-02 23:59:00,
2013-06-02 20:04:00,75.0,62.9,29.68,SW,225,4.2,4.2,66,0.00,FEW,,0.13,WeatherDisplay:10.37,2013-06-03 00:04:00,
2013-06-02 20:09:00,74.7,62.6,29.68,SW,225,4.6,4.6,66,0.00,FEW,,0.13,WeatherDisplay:10.37,2013-06-03 00:09:00,
2013-06-02 20:14:00,74.8,62.7,29.68,WSW,248,3.7,3.7,66,0.00,FEW,,0.13,WeatherDisplay:10.37,2013-06-03 00:14:00,
2013-06-02 20:19:00,75.0,62.9,29.68,WSW,248,4.6,4.6,66,0.00,FEW,,0.13,WeatherDisplay:10.37,2013-06-03 00:19:00,
2013-06-02 20:24:00,74.3,63.1,29.69,SW,225,4.7,4.7,68,0.00,FEW,,0.13,WeatherDisplay:10.37,2013-06-03 00:24:00,
2013-06-02 20:29:00,73.8,63.0,29.69,WSW,248,4.6,4.6,69,0.00,FEW,,0.13,WeatherDisplay:10.37,2013-06-03 00:29:00,
2013-06-02 20:34:00,73.2,62.8,29.69,SW,225,4.6,4.6,70,0.00,FEW,,0.13,WeatherDisplay:10.37,2013-06-03 00:34:00,
2013-06-02 20:39:00,73.0,62.6,29.69,SSW,202,4.6,4.6,70,0.00,FEW,,0.13,WeatherDisplay:10.37,2013-06-03 00:39:00,
2013-06-02 20:44:00,72.9,62.9,29.69,WSW,248,5.8,5.8,71,0.00,FEW,,0.13,WeatherDisplay:10.37,2013-06-03 00:44:00,
2013-06-02 20:49:00,72.5,63.0,29.69,WSW,248,4.6,4.6,72,0.00,FEW,,0.13,WeatherDisplay:10.37,2013-06-03 00:49:00,
2013-06-02 20:54:00,72.3,63.2,29.69,SSW,202,3.5,3.5,73,0.00,FEW,,0.13,WeatherDisplay:10.37,2013-06-03 00:54:00,
2013-06-02 20:59:00,72.1,63.4,29.69,SW,225,3.5,3.5,74,0.00,FEW,,0.13,WeatherDisplay:10.37,2013-06-03 00:59:00,
2013-06-02 21:04:00,71.8,63.1,29.69,SW,225,3.5,3.5,74,0.00,SCT,,0.13,WeatherDisplay:10.37,2013-06-03 01:04:00,
2013-06-02 21:09:00,71.6,63.3,29.69,SW,225,2.7,2.7,75,0.00,SCT,,0.13,WeatherDisplay:10.37,2013-06-03 01:09:00,
2013-06-02 21:14:00,71.2,63.6,29.69,SW,225,3.2,3.2,77,0.00,SCT,,0.13,WeatherDisplay:10.37,2013-06-03 01:14:00,
2013-06-02 21:19:00,71.2,63.6,29.69,WSW,248,3.5,3.5,77,0.00,SCT,,0.13,WeatherDisplay:10.37,2013-06-03 01:19:00,
2013-06-02 21:24:00,70.9,63.7,29.70,SW,225,3.5,3.5,78,0.00,SCT,,0.13,WeatherDisplay:10.37,2013-06-03 01:24:00,
2013-06-02 21:29:00,70.3,63.8,29.70,SW,225,3.5,3.5,80,0.00,SCT,,0.13,WeatherDisplay:10.37,2013-06-03 01:29:00,
2013-06-02 21:34:00,70.5,63.7,29.70,SSW,202,5.8,5.8,79,0.00,SCT,,0.13,WeatherDisplay:10.37,2013-06-03 01:34:00,
2013-06-02 21:39:00,70.5,63.7,29.70,SW,225,3.5,3.5,79,0.00,SCT,,0.13,WeatherDisplay:10.37,2013-06-03 01:39:00,
2013-06-02 21:44:00,70.2,63.7,29.71,SW,225,3.5,3.5,80,0.00,SCT,,0.13,WeatherDisplay:10.37,2013-06-03 01:44:00,
2013-06-02 21:49:00,70.0,63.9,29.71,SW,225,3.2,3.2,81,0.00,SCT,,0.13,WeatherDisplay:10.37,2013-06-03 01:49:00,
2013-06-02 21:55:00,70.0,63.9,29.71,SW,230,3.0,5.0,81,0.00,SCT,,0.13,WeatherDisplay:10.37,2013-06-03 01:55:00,
2013-06-02 22:00:00,69.6,63.5,29.71,SW,225,3.5,3.7,81,0.00,SCT,,0.13,WeatherDisplay:10.37,2013-06-03 02:00:00,
2013-06-02 22:05:00,69.6,63.5,29.71,SW,225,4.6,4.6,81,0.00,BKN,,0.13,WeatherDisplay:10.37,2013-06-03 02:05:00,
2013-06-02 22:10:00,69.4,63.7,29.71,SW,225,3.5,3.5,82,0.00,BKN,,0.13,WeatherDisplay:10.37,2013-06-03 02:10:00,
2013-06-02 22:15:00,69.4,63.7,29.71,SW,225,4.6,4.6,82,0.00,BKN,,0.13,WeatherDisplay:10.37,2013-06-03 02:15:00,
2013-06-02 22:20:00,69.4,63.7,29.71,WSW,248,3.5,3.5,82,0.00,BKN,,0.13,WeatherDisplay:10.37,2013-06-03 02:20:00,
2013-06-02 22:25:00,69.4,63.7,29.72,SSW,202,3.5,3.5,82,0.00,BKN,,0.13,WeatherDisplay:10.37,2013-06-03 02:25:00,
2013-06-02 22:30:00,69.1,63.4,29.72,WSW,248,3.5,3.5,82,0.00,BKN,,0.13,WeatherDisplay:10.37,2013-06-03 02:30:00,
2013-06-02 22:35:00,68.5,63.8,29.72,SW,225,2.3,2.3,85,0.00,BKN,,0.13,WeatherDisplay:10.37,2013-06-03 02:35:00,
2013-06-02 22:40:00,68.5,63.8,29.72,SW,225,2.3,2.3,85,0.00,BKN,,0.13,WeatherDisplay:10.37,2013-06-03 02:40:00,
2013-06-02 22:45:00,68.5,63.5,29.72,WSW,248,3.5,3.5,84,0.00,BKN,,0.13,WeatherDisplay:10.37,2013-06-03 02:45:00,
2013-06-02 22:50:00,68.5,63.5,29.72,SW,225,4.6,4.6,84,0.00,BKN,,0.13,WeatherDisplay:10.37,2013-06-03 02:50:00,
2013-06-02 22:55:00,68.5,63.5,29.72,WSW,248,3.5,3.5,84,0.00,BKN,,0.13,WeatherDisplay:10.37,2013-06-03 02:55:00,
2013-06-02 23:00:00,68.7,63.3,29.72,SW,225,3.5,3.5,83,0.00,BKN,,0.13,WeatherDisplay:10.37,2013-06-03 03:00:00,
2013-06-02 23:05:00,68.7,63.3,29.72,SW,225,2.7,2.7,83,0.00,SCT,,0.13,WeatherDisplay:10.37,2013-06-03 03:05:00,
2013-06-02 23:10:00,68.7,63.3,29.72,SW,225,2.3,2.6,83,0.00,SCT,,0.13,WeatherDisplay:10.37,2013-06-03 03:10:00,
2013-06-02 23:15:00,68.7,63.3,29.72,WSW,248,2.3,2.3,83,0.00,SCT,,0.13,WeatherDisplay:10.37,2013-06-03 03:15:00,
2013-06-02 23:20:00,68.5,63.1,29.72,WSW,248,2.3,2.3,83,0.00,SCT,,0.13,WeatherDisplay:10.37,2013-06-03 03:20:00,
2013-06-02 23:25:00,68.4,63.4,29.71,SW,225,1.1,1.1,84,0.00,SCT,,0.13,WeatherDisplay:10.37,2013-06-03 03:25:00,
2013-06-02 23:30:00,68.0,63.3,29.71,SW,225,2.7,2.7,85,0.00,SCT,,0.13,WeatherDisplay:10.37,2013-06-03 03:30:00,
2013-06-02 23:35:00,67.8,63.1,29.71,SSW,202,3.5,3.5,85,0.00,SCT,,0.13,WeatherDisplay:10.37,2013-06-03 03:35:00,
2013-06-02 23:40:00,67.6,63.3,29.71,SSW,202,2.3,2.3,86,0.00,SCT,,0.13,WeatherDisplay:10.37,2013-06-03 03:40:00,
2013-06-02 23:45:00,67.6,63.6,29.71,SW,225,3.2,3.2,87,0.00,SCT,,0.13,WeatherDisplay:10.37,2013-06-03 03:45:00,
2013-06-02 23:50:00,67.6,63.9,29.71,WSW,248,2.3,2.3,88,0.00,SCT,,0.13,WeatherDisplay:10.37,2013-06-03 03:50:00,
2013-06-02 23:55:00,67.5,64.1,29.71,WSW,248,3.2,3.2,89,0.00,SCT,,0.13,WeatherDisplay:10.37,2013-06-03 03:55:00,